Погода в Красномихайловском

Россия / Республика Калмыкия     46°10′12″N   42°32′13″E
темп.,
°C
ветер,
м/с
пор.,
м/с
влажн.,
%
обл.,
%
осадки,
мм/ч
давл.,
гПа
погр.,
м
18 мая, вт
вт1800:00+17з71389100 0.2 1008490
03:00+17з51192100 1.6 1009570
06:00+16з71192100 1.6 1009559
09:00+16з71088100 10.0 1010550
12:00+19з6871100 0.0 10101038
15:00+22з46563 0.0 10101524
18:00+21з35650 0.0 1010334
21:00+17зюз23774 0.0 101129
19 мая, ср
ср1900:00+16ююв128112 0.0 101016
03:00+15вюв2286100 0.0 100930
06:00+16вюв3884100 0.0 1008229
09:00+21ююв586593 0.1 1009773
12:00+14з111882100 2.3 1012955
15:00+19з8116517 2.8 10131237
18:00+18з6126710 0.0 10141448
21:00+14юз477838 0.0 1015192
20 мая, чт
чт2000:00+14зюз614665 0.0 1015585
03:00+11ююз48825 0.0 1016169
06:00+12ююз410760 0.0 1016286
09:00+19юз685445 0.0 10161115
12:00+22юз464373 0.0 10161582
15:00+23зюз35420 0.0 10151487
18:00+22сз23560 0.0 101599
21:00+17всв33635 0.0 101527
21 мая, пт
пт2100:00+15в45675 0.0 101462
03:00+15в486619 0.0 1014135
06:00+15вюв511737 0.0 1014249
09:00+22вюв7125158 0.0 1013685
12:00+26вюв9114144 0.0 10121071
15:00+29вюв812435 0.0 10101179
18:00+25вюв9164927 0.0 1010589
21:00+21вюв918465 0.0 1010535
22 мая, сб
сб2200:00+19вюв919510 0.0 1009614
03:00+18вюв718581 0.0 1009570
06:00+18вюв7176612 0.0 1009590
09:00+23вюв91655100 0.0 1008768
12:00+29юв8104180 0.0 10091266
15:00+32юв6939100 0.0 10071577
18:00+27вюв61347100 0.0 1007335
21:00+24вюв61544100 0.0 1009370